Retour au catalogue

ATLAS CENTAUR R/B

ActifHEO
NORAD 12445·ROCKET BODY·🇺🇸 United States

Lancé Dec 6, 1980 depuis Cape Canaveral Space Force Station

Loading…

Prochains Passages (prochaines 24 heures)

TLE

FraisSource: Space-Track

Époque: Sep 14, 2026, 11:14 UTC

1 12445U 80098B   26257.46849376  .00005163  00000-0  10458-2 0  9995
2 12445  23.6304 226.0969 4088077 327.0203  13.0616  7.15329328 70476

Suivez ATLAS CENTAUR R/B en temps réel avec AllMySat

Download on the App Store